Regional Weather Roundup
Issued by NWS Grand Forks, ND

Home | Current Version | Previous Version | Graphics & Text | Print | Product List | Glossary On
Versions: 1 2 3 4 5 6 7 8 9 10 11 12 13 14 15 16 17 18 19 20 21 22 23 24 25 26 27 28 29 30 31 32 33 34 35 36 37 38 39 40 41 42 43 44 45 46 47 48 49 50
000
ASUS43 KFGF 271331
RWRFGF
PRAIRIE TO PINES  WEATHER ROUNDUP
NATIONAL WEATHER SERVICE EASTERN NORTH DAKOTA/GRAND FORKS ND
800 AM CDT TUE JUN 27 2017

 **SATELLITE DATA USED TO AUGMENT SKY COVER AT AUTOMATED STATIONS**
 *****  WEATHER ACROSS EASTERN NORTH DAKOTA  *****

CITY           SKY/WX    TMP DP  RH WIND       PRES   REMARKS
GRAND FORKS    CLOUDY    58  46  64 S13       29.91F
GRAND FRKS AFB FAIR      60  43  54 S13       29.91F
DEVILS LAKE    FAIR      59  43  55 S21       29.86F
FARGO          FAIR      62  43  49 S15       29.97F
WAHPETON ARPT  FAIR      59  41  51 S14       30.00F
$$

 ***** WEATHER ACROSS CENTRAL AND WESTERN NORTH DAKOTA  *****

CITY           SKY/WX    TMP DP  RH WIND       PRES   REMARKS
BISMARCK       FAIR      61  42  49 S12       29.82F
MINOT          FAIR      65  40  39 SE17G26   29.72F
JAMESTOWN      FAIR      59  42  53 S14       29.90F
MINOT AFB      FAIR      65  41  40 S21G29    29.70F
GARRISON         N/A     60  42  51 S14       29.76F
WILLISTON      FAIR      66  43  43 S13G21    29.66F
DICKINSON      FAIR      60  39  45 S21       29.69F
HETTINGER      FAIR      61  42  49 SE10      29.76F
$$

 *****  OTHER AIRPORT OBSERVATIONS IN OUR AREA  *****

CITY           SKY/WX    TMP DP  RH WIND       PRES   REMARKS
WALHALLA       NOT AVBL
GRAFTON AIRPOR FAIR      61  46  59 S9G16     29.90F
VALLEY CITY AR FAIR      61  43  51 S15G26    29.94F
CANDO          NOT AVBL
CAVALIER APRT  FAIR      61  45  55 S13       29.86F
GWINNER        CLOUDY    63  46  55 S12       29.96F
ROLLA            N/A     57  45  62 S10       29.82F
 ***** THE ABOVE OBSERVATIONS ARE NON NWS ARE NOT QUALITY
       CONTROLLED AND MAY MIS-REPORT RAIN FOR SNOW...
$$

  *****  WEATHER ACROSS NORTHERN MINNESOTA  *****

CITY           SKY/WX    TMP DP  RH WIND       PRES   REMARKS
FLAG ISLAND    FAIR      61  45  55 SW10      29.92R
WARROAD        FAIR      59  48  67 SW8         N/A
ROSEAU         FAIR      57  48  72 S10       29.93F
HALLOCK        FAIR      59  46  63 S12       29.89S
THF RVR FALLS  FAIR      55  43  63 S10       29.97F
BAUDETTE       FAIR      58  46  64 SW8       29.96F
WASKISH        FAIR      59  48  67 SW6       29.99F
CROOKSTON      FAIR      57  45  62 S12G20    29.94F
STEPHEN NDAWN    N/A     59  43  55 S12         N/A
GREENBUSH NDAW   N/A     57  45  62 S12         N/A
$$
  *****  WEATHER ACROSS CENTRAL AND WEST MINNESOTA  *****

CITY           SKY/WX    TMP DP  RH WIND       PRES   REMARKS
FOSSTON        FAIR      57  43  58 S15       29.99F
BEMIDJI        FAIR      57  46  66 SW6       30.01S
PARK RAPIDS    FAIR      57  44  62 SW8       30.02F
ELBOW LAKE     FAIR      61  45  56 S10G17    30.03F
WADENA         FAIR      61  45  55 S10       30.03F
DETROIT LAKES  FAIR      63  43  48 SW12      30.02S
MOORHEAD       FAIR      61  43  51 S13       29.98F
FERGUS FALLS   FAIR      61  45  55 S13       30.00F
MORRIS MN      FAIR      61  46  59 S10       30.03F
STAPLES        FAIR      57  46  67 S6        30.04F
$$
  *****  WEATHER ELSEWHERE ACROSS MINNESOTA  *****

CITY           SKY/WX    TMP DP  RH WIND       PRES   REMARKS
DULUTH         FAIR      60  45  57 W8        30.04S
INTRNTL FALLS  FAIR      56  46  69 SW6       29.99S
ELY            FAIR      57  46  67 SW3       30.02S
CLOQUET        FAIR      63  43  48 W8        30.05S
WHEATON        FAIR      63  43  48 S9        30.03S
BRAINERD       FAIR      54  46  74 S5        30.06S
HIBBING        FAIR      57  49  74 SW5       30.03F
ALEXANDRIA     FAIR      61  43  51 S13       30.06F
SAINT CLOUD    FAIR      58  48  69 SW5       30.08S
MINNEAPOLIS    FAIR      62  45  53 SW6       30.10S
$$

  *****  WEATHER ACROSS SOUTH DAKOTA  *****

CITY           SKY/WX    TMP DP  RH WIND       PRES   REMARKS
SIOUX FALLS    FAIR      60  46  59 S12G21    30.06F
BROOKINGS      FAIR      55  43  63 S12       30.06F
WATERTOWN      FAIR      52  44  74 S10       30.02F
HURON          FAIR      54  44  69 S14       29.99F
SISSETON         N/A     63  45  51 S12       29.99F
ABERDEEN       FAIR      55  44  66 S14       29.97F
MITCHELL       FAIR      57  45  64 S10       30.02F
PIERRE         FAIR      60  47  61 SE14      29.89F
MOBRIDGE       FAIR      63  44  50 S24G31    29.83F
RAPID CITY     FAIR      65  54  67 S24G32    29.79F
$$

  *****  SOME WEATHER IN NEARBY STATES *****

CITY           SKY/WX    TMP DP  RH WIND       PRES   REMARKS
GLASGOW MT     FAIR      68  41  37 E9        29.59F
GREAT FALLS MT FAIR      64  50  60 SW17G26   29.76R
CHEYENNE WY    FAIR      55  53  93 SW6       30.03S FOG
SCOTTSBLUFF NE CLOUDY    64  57  78 SE15      29.93F
OMAHA NE       FAIR      61  50  67 SE10      30.11S
DES MOINES IA  FAIR      59  48  67 S7        30.15S
DAVENPORT IA   FAIR      58  49  72 W5        30.17R
CHICAGO IL     FAIR      62  47  57 W8        30.13R
EAU CLAIRE WI  FAIR      58  49  72 SW5       30.09S
LA CROSSE WI   FAIR      62  50  64 S6        30.12S
$$

  *****  SOME NATIONAL WEATHER *****

CITY           SKY/WX    TMP DP  RH WIND       PRES   REMARKS
LA GUARDIA NY  PTSUNNY   65  60  84 NE6       30.00F
RALEIGH NC     FAIR      73  57  57 N8        30.06S
ATLANTA GA     PTSUNNY   75  59  57 NW7       30.09S
NEW ORLEANS LA PTSUNNY   80  73  79 CALM      30.02R
OKLAHOMA CITY  PTSUNNY   72  64  76 S10       30.06F
ALBUQUERQUE NM FAIR      65  53  65 NW9       30.20S
SALT LAKE CITY FAIR      73  47  39 SW3       29.91R
LOS ANGELES CA FAIR      63  59  87 E5        29.86S
BOISE ID       FAIR      64  51  62 CALM      29.91S
SEATTLE WA     CLOUDY    55  49  80 SW8       30.06R
$$

*** WEATHER ACROSS MANITOBA...SASKATCHEWAN AND ONTARIO ***
                ***ONTARIO***

CITY           SKY/WX    TMP DP  RH WIND       PRES   REMARKS
GERALDTON      CLOUDY    52  50  93 SW7       29.90F
THUNDER BAY    PTSUNNY   54  50  87 W3        29.97F
SIOUX LOOKOUT  MOSUNNY   61  48  63 W3        29.92S
TORONTO        PTSUNNY   55  50  82 W7        29.94R
BIG TROUT LK   CLOUDY    55  52  88 S6        29.68F
PICKLE LAKE    PTSUNNY   61  46  59 W14       29.83F
DRYDEN         SUNNY     61  48  63 SW8       29.93F
KENORA         PTSUNNY   61  48  63 SW8       29.93F
$$
                *** MANITOBA***

CITY           SKY/WX    TMP DP  RH WIND       PRES   REMARKS
BRANDON        PTSUNNY   57  48  72 SE7       29.75F
DAUPHIN        SUNNY     66  45  45 SW23G30   29.66F
ISLAND LAKE    MOSUNNY   61  48  63 W8        29.73S
PILOT MOUND      N/A     55  45  67 S14         N/A
THE PAS        PTSUNNY   64  54  68 SE7       29.66F
THOMPSON       MOSUNNY   50  43  76 NE12G21   29.79S
WINNIPEG       PTSUNNY   57  45  62 S13       29.84F
LYNN LAKE      SUNNY     54  46  76 E15G21    29.78S
CHURCHILL      MOSUNNY   43  37  81 NE13      29.94R
GILLAM         CLOUDY    46  45  93 NE13G24   29.81R
$$
                ***SASKATCHEWAN***

CITY           SKY/WX    TMP DP  RH WIND       PRES   REMARKS
ESTEVAN        PTSUNNY   64  45  48 SE16      29.62F
KINDERSLEY     PTSUNNY   63  57  82 NW14      29.50R
LLOYDMINSTER   TSTM      55  55 100 NW28G37   29.53R
PRINCE ALBERT  PTSUNNY   63  50  63 E10       29.49F
REGINA         MOSUNNY   61  46  59 SE14G21   29.58F
YORKTON        SUNNY     59  48  67 S12G17    29.61F
N. BATTLEFORD  MOSUNNY   57  50  77 CALM      29.44S
LA RONGE       PTSUNNY   64  45  48 E13       29.54F
SASKATOON      PTSUNNY   63  48  59 S12       29.45F
SWIFT CURRENT  SUNNY     66  48  52 SW15G31   29.55S
$$
NOTE: THESE ARE AUTOMATED STATIONS WITH LIMITED QUALITY CONTROL
      "FAIR" INDICATES FEW OR NO CLOUDS BELOW 12,000 FEET WITH NO
      SIGNIFICANT WEATHER AND/OR OBSTRUCTIONS TO VISIBILITY.
      SKY/WX - SKY CONDITION AND SIGNIFICANT WEATHER.
      TMP - AIR TEMPERATURE.    DP   - DEWPOINT TEMPERATURE.
      RH  - RELATIVE HUMIDITY.  PRES - PRESSURE.
      HX  - HEAT INDEX.         WCI  - WIND CHILL INDEX.
$




USA.gov is the U.S. government's official web portal to all federal, state and local government web resources and services.